Showing default

YUNHAI 2-2F, 59285

Orbit data source: Space-Track

YUNHAI 2-2F, 59285 is a payload satellite owned by CASC (CN) in LEO that was launched on Thu, 21 Mar 2024 UTC via a CHANG ZHENG 2D/YZ-3 launch vehicle from the Jiuquan Satellite Launch Center, China (JSC). Payload-class satellites include a variety of spacecraft equipped with specific instruments for various scientific and technological missions. These include communications satellites like Starlink; space stations such as the ISS; scientific satellites like the Hubble; Earth observation satellites from companies like Planet Labs, Umbra, and HawkEye 360; GPS; miniature CubeSats for education and research; and military/defense satellites.

Loading next visibility...
Identifier
59285, 2024-052F
Orbit
LEO
Country
Flag of CNCN / PRC
Related business
Manufacturer
DFH Shenzhen
Mission
Operational Defense Meteo Radio Occ.
Bus & Motor
YH-2, Unknown motor
Mass
~100 kg wet, ~100 kg dry
Launch date (UTC)
2024-03-21 (2 years ago)
Launch vehicle
CHANG ZHENG 2D/YZ-3
Launch site
Jiuquan Satellite Launch Center, China (JSC)
Object type
Payload
Rocket body
Debris
Shape & HBR
Box + 2 Pan, 0.5 m
Radar Cross Section
0.166 m², Large (>1 m²)

Expand to show TLE details & history
Last TLE update: 23 hours ago

TLE from 23 hours ago
0 YUNHAI 2-2F
1 59285U 24052F   26172.56070537  .00000026  00000-0  75015-4 0  9993
2 59285  50.0099 184.4182 0005279 198.8124 161.2597 14.27991066119780
Epoch: 2026-06-21T13:27Z
TLE epoch observation values (Epoch: 2026-06-21T13:27:24.943Z)
Latitude
-0°
Longitude
72.80505°
Altitude
802.573 km
Speed
7.452 km/s
True Right ascension
12h 17m 40s
True Declination
0° 00' 00"
Sunlit
Object was in daylight at epoch
Visualization orbit readout
Latitude
Unknown
Longitude
Unknown
Altitude
Unknown
Speed
Unknown
Apparent Right ascension
Unknown
Apparent Declination
Unknown
Sunlit
N/A
Visualization observer readout
Local Sidereal Time
23:08:44
Azimuth
Unknown
Elevation
Unknown
Doppler factor
Unknown
Orbital elements
Apogee altitude
802.981 km
Perigee altitude
795.403 km
Semi-major axis
7,177.329 km
Eccentricity
0.00053
Inclination
50.0099°
RAAN
184.4182°
Arg. of periapsis
198.8124°
True anomaly
161.27912°
Mean anomaly
161.2597°
Eccentric anomaly
161.26941°
Mean motion
3.56943 °/min
Orbital period
100.86 mins
BSTAR
0.000075015
Loading maneuver chart data...
Computing Atmospheric mass density...
Loading historical data...
Loading historical data...
Loading historical data...
Loading historical data...
Loading historical data...
Loading historical data...
Loading historical data...

Documentation

Showing up to 5 results
|